Weather History for Altus AFB, OK

Change the Weather History Date:

Friday, May 3, 2013

  Actual Average Record
Temperature  
Mean Temperature 52 °F -  
Max Temperature 70 °F 78 °F 100 °F (2012)
Min Temperature 33 °F 54 °F 33 °F (2013)
Degree Days  
Heating Degree Days 14    
Growing Degree Days 2 (Base 50)    
Moisture  
Dew Point 24 °F    
Average Humidity 41    
Maximum Humidity 81    
Minimum Humidity 13    
Precipitation  
Precipitation 0.00 in - - ()
Sea Level Pressure  
Sea Level Pressure 30.21 in    
Wind  
Wind Speed 10 mph (NNW)    
Max Wind Speed 20 mph    
Max Gust Speed 25 mph    
Visibility 10 miles    
Events      
Averages and records for this station are not official NWS values.
T = Trace of Precipitation, MM = Missing Value Source: NWS Daily Summary

Daily Weather History Graph

Daily Weather History Graph

Search for Another Location

Airport:

Trip Planner

Search our weather history database for the weather conditions in past years. The results will help you decide how hot, cold, wet, or windy it might be!

Date:

Astronomy

May. 03, 2013 Rise Set
Actual Time 6:44 AM CDT 8:23 PM CDT
Civil Twilight 6:17 AM CDT 8:50 PM CDT
Nautical Twilight 5:44 AM CDT 9:23 PM CDT
Astronomical Twilight 5:10 AM CDT 9:58 PM CDT
Moon 2:54 AM CDT (5/3) 2:34 PM CDT (5/3)
Length of Visible Light 14h 33m
Length of Day
13h 39m
Last Quarter, 37% of the Moon is Illuminated
May 3
Last Quarter
May 9
New
May 17
First Quarter
May 24
Full
May 31
Last Quarter

Hourly Weather History & Observations

Time (CDT) Temp. Windchill Dew Point Humidity Pressure Visibility Wind Dir Wind Speed Gust Speed Precip Events Conditions
12:58 AM 40.1 °F 34.1 °F 28.6 °F 63% 30.44 in 10.0 mi NW 9.2 mph - N/A   Clear
1:58 AM 39.2 °F 32.5 °F 28.0 °F 64% 30.43 in 10.0 mi NW 10.4 mph - N/A   Clear
2:58 AM 37.6 °F 31.6 °F 28.0 °F 68% 30.40 in 10.0 mi WNW 8.1 mph - N/A   Clear
3:58 AM 36.1 °F 28.7 °F 28.6 °F 74% 30.40 in 10.0 mi NW 10.4 mph - N/A   Clear
4:58 AM 36.0 °F 29.0 °F 28.4 °F 74% 30.37 in 10.0 mi NW 9.2 mph - N/A   Clear
5:58 AM 34.5 °F 27.3 °F 27.9 °F 77% 30.37 in 10.0 mi NW 9.2 mph - N/A   Clear
6:58 AM 33.3 °F 25.1 °F 27.9 °F 81% 30.38 in 10.0 mi WNW 10.4 mph - N/A   Clear
7:58 AM 35.2 °F 27.6 °F 27.3 °F 73% 30.38 in 10.0 mi WNW 10.4 mph - N/A   Clear
8:58 AM 42.1 °F 36.1 °F 28.4 °F 58% 30.37 in 10.0 mi NW 10.4 mph - N/A   Clear
9:58 AM 53.2 °F - 25.2 °F 34% 30.34 in 10.0 mi NW 12.7 mph - N/A   Clear
10:58 AM 57.6 °F - 24.1 °F 28% 30.30 in 10.0 mi NW 13.8 mph 18.4 mph N/A   Clear
11:58 AM 61.0 °F - 21.7 °F 22% 30.27 in 10.0 mi NW 15.0 mph 21.9 mph N/A   Clear
12:58 PM 63.0 °F - 20.3 °F 19% 30.23 in 10.0 mi WNW 19.6 mph 25.3 mph N/A   Partly Cloudy
1:58 PM 65.7 °F - 21.4 °F 18% 30.19 in 10.0 mi WNW 6.9 mph 20.7 mph N/A   Partly Cloudy
2:58 PM 67.1 °F - 19.6 °F 16% 30.14 in 8.0 mi NW 15.0 mph 21.9 mph N/A   Clear
3:58 PM 69.1 °F - 17.1 °F 14% 30.09 in 10.0 mi NW 12.7 mph 25.3 mph N/A   Clear
4:58 PM 70.0 °F - 17.4 °F 13% 30.04 in 10.0 mi West 11.5 mph 19.6 mph N/A   Clear
5:06 PM 69.8 °F - 17.6 °F 14% 30.03 in 10.0 mi NNW 12.7 mph 19.6 mph N/A   Clear
5:19 PM 69.8 °F - 17.6 °F 14% 30.03 in 10.0 mi NNW 12.7 mph 19.6 mph N/A   Clear
5:58 PM 70.7 °F - 18.0 °F 13% 30.02 in 10.0 mi North 12.7 mph 25.3 mph N/A   Clear
6:58 PM 69.1 °F - 17.6 °F 14% 30.01 in 10.0 mi North 15.0 mph - N/A   Clear
7:58 PM 64.4 °F - 23.4 °F 21% 30.01 in 10.0 mi NNE 11.5 mph - N/A   Clear
8:58 PM 56.1 °F - 26.1 °F 31% 30.02 in 10.0 mi ENE 8.1 mph - N/A   Clear
9:58 PM 47.1 °F - 29.1 °F 50% 30.04 in 10.0 mi NE 4.6 mph - N/A   Clear
10:58 PM 45.1 °F - 29.8 °F 55% 30.04 in 10.0 mi NE 1.2 mph - N/A   Clear
11:58 PM 41.5 °F 37.8 °F 30.4 °F 65% 30.04 in 10.0 mi NE 5.8 mph - N/A   Clear